sat.trackr.live / text

‹ back to catalog

STARLINK-5728

NORAD 55588 · 2023-020V

PAYLOAD ACTIVE UNKNOWN

§ Identity

Operator
Country
US
Launch date
2023-02-12
Launch site
AFETR
Launch vehicle
Mass (kg)
RCS (m²)

Purposes: comms

External: N2YO · Heavens-Above · Gunter

§ Orbital elements

Epoch: 2026-05-24T19:37:11.796096Z

Period
94.27 min
Inclination
43.0048°
Eccentricity
0.0001893
Mean motion
15.27574357 rev/d
Perigee alt
481.8 km
Apogee alt
484.4 km
Semi-major
6,861.2 km
B*
2.7879e-6
RAAN
295.4397°
Arg perigee
275.8145°
Mean anomaly
84.2491°
Rev number
18,055

§ Raw data

STARLINK-57281 55588U 23020V   26144.81749764 -.00000186  00000+0  27879-5 0  99942 55588  43.0048 295.4397 0001893 275.8145  84.2491 15.27574357180557

JSON: /api/v1/satellites/55588 · /tle

For live sub-satellite position, see the globe view (requires WebGL).

§ Visibility from observer

Set your observer location to see the next 7 days of passes ≥ 10°. The values pass through the URL so the page stays shareable.

No JS? Fill the form by hand. The geolocation button needs JavaScript.